Powrót do katalogu

ONEWEB-0385

AktywnyŁącznośćPO
NORAD 49311·PAYLOAD·🇬🇧 United Kingdom

Wystrzelony Oct 14, 2021 z Vostochny Cosmodrome

Loading…

Następne Przeloty (najbliższe 24 godziny)

TLE

ŚwieżeSource: CelesTrak SupGP

Epoka: Sep 14, 2026, 13:19 UTC

1 49311C 21090AJ  26257.55537454 -.00000239  00000+0 -58953-3 0  2575
2 49311  87.9141 256.6122 0002138  93.8019  18.6022 13.20771946    18

Śledź ONEWEB-0385 w czasie rzeczywistym z AllMySat

Download on the App Store